KINEIS-2B

Last updated on Fri Sep 11 2026 00:02:53 GMT+0000 (Coordinated Universal Time)

1 62934U 25028G 26253.36428780 .00000869 00000+0 14121-3 0 9991 2 62934 97.9593 304.6567 0002475 218.7976 141.3055 14.73562008 85207
UTC large
Height (km)
Speed (km/s)
/
Latitude / Longitude
Inclination (degrees)
Orbital Period (minutes)
Azimuth
Elevation
Range (km)
Doppler Factor

Next 0 passes for location: London (51.5072 / 0.1276)

No passes found over London.
KINEIS-2B